Location: Artiguedieu
(43.5000°N, 0.5454°E)
Time: 10:22:21
(UTC+00:00)

Vanguard 1 Rocket - Pass Details

Date: 31 July 2021
Orbit: 650 x 4226 km, 34.3° (Epoch: 24 September)

Event Time Altitude Azimuth Distance (km) Brightness Sun altitude
Rises 10:21:40 0° 237° (WSW) 8,021 12.1 56.7°
Reaches altitude 10° 10:28:02 10° 233° (SW) 6,584 11.8 57.5°
Maximum altitude 10:45:36 47° 168° (SSE) 2,839 11.6 59.7°
Drops below altitude 10° 10:55:02 10° 98° (E) 3,670 10.9 60.7°
Sets 10:57:31 0° 92° (E) 4,327 11.1 61.0°
